カタログに戻る

STARLINK-35964

運用中通信VLEO
NORAD 66796·PAYLOAD·🇺🇸 United States

打ち上げ Dec 1, 2025 から Cape Canaveral Space Force Station

Loading…

次のパス (今後24時間)

TLE

最新Source: CelesTrak SupGP

元期: Sep 15, 2026, 04:01 UTC

1 66796C 25278F   26258.16784722  .00014108  00000+0  51094-3 0  2581
2 66796  42.9995 109.3985 0001479 273.3977 157.6704 15.27575759    12

AllMySatでSTARLINK-35964をリアルタイム追跡

Download on the App Store